Location: Unspecified
(41.5516°N, 88.1098°W)
Time: 17:30:41
(UTC-06:00)

Hubble Space Telescope - Visible Passes

Search period start: 18 January 2018 00:00
Search period end: 28 January 2018 00:00
Orbit: 537 x 541 km, 28.5° (Epoch: 17 January)

Date Brightness Start Highest point End Pass type
(mag) Time Alt. Az. Time Alt. Az. Time Alt. Az.
24 Jan 3.5 19:24:29 10° SSW 19:24:44 11° SSW 19:24:44 11° SSW visible
25 Jan 3.3 19:13:53 10° SSW 19:15:07 12° S 19:15:07 12° S visible
26 Jan 3.2 19:03:23 10° SSW 19:05:21 13° S 19:05:31 13° S visible
27 Jan 3.1 18:52:58 10° SSW 18:54:57 13° S 18:55:55 12° SSE visible
